Weather in Qusmuryn

Kazakhstan     52°27′05″N   64°36′37″E
temp.,
°C
wind,
m/s
gust,
m/s
humid.,
%
clouds,
%
prec.,
mm/h
press.,
hPa
HPBL,
m
17 april, sat
sat1723:00+9ne7128867 0.0 1022375
02:00+6ne599351 0.0 1023246
05:00+5ne478915 0.0 1024141
08:00+7ne468594 0.0 1025218
11:00+10ene347543 0.0 1024436
14:00+13ne33585 0.0 1023712
17:00+14nne21555 0.0 1022623
20:00+11ne11675 0.0 102214
18 april, sun
sun1823:00+9e22690 0.0 102110
02:00+8s22772 0.0 101910
05:00+8sw338131 0.0 101818
08:00+10w377819 0.0 1018257
11:00+13nnw566742 0.0 1017768
14:00+12nnw675350 0.0 10181069
17:00+12n784120 0.0 10191594
20:00+5ne913685 0.0 1023772
19 april, mon
mon1923:00+3ne812535 0.0 1026784
02:000ne712585 0.0 1028636
05:00−1ene71051100 0.0 1031913
08:00−1ene8941100 0.0 10321050
11:00+1ne8932100 0.0 10331371
14:00+2ne7832100 0.0 10321547
17:00+2ne8833100 0.0 10321595
20:000ne61043100 0.0 1033526
20 april, tue
tue2023:00−2ene610470 0.0 1034603
02:00−2ne510460 0.0 1035774
05:00−3ne59470 0.0 1036532
08:00−1ene68350 0.0 1037974
11:00+1ne56290 0.0 10361206
14:00+3ne442913 0.0 10351185
17:00+4nne23285 0.0 1034933
20:00+1sse11410 0.0 103410
21 april, wed
wed2123:00+1wsw22400 0.0 103418
02:00+1w33440 0.0 103343
05:000wnw46480 0.0 1034111
08:00+4wnw58400 0.0 1034321
11:00+9nw67330 0.0 1033933
14:00+12nw66330 0.0 10321424
17:00+13nnw56330 0.0 10321591
20:00+9nnw33470 0.0 103324